KLM1676 LIEE-EHAM

Flight info

Callsign KLM1676
Flight time 2h 15m
Altitude 18000
Route KOVAS DCT GIGGI Q213 CORSI/N0454F340 DCT OMEDA DCT MERLU DCT PIGOS DCT BARSO DCT OKTET DCT GIPNO DCT BULOL DCT IDAVO DCT BAGBI DCT SIZZA DCT LAULY DCT BRY DCT CLM DCT NURMO DCT SULEX DCT VEKIN DCT ADUTO N873 FERDI/N0407F240 Y18 DENUT
Aircraft A321/M-SDE3FGHIRWY/LB1

Departure

Time 2026-05-04 07:34
Airport Cagliari Elmas Airport (LIEE)

Arrival

Time 2026-05-04 09:49
Airport Amsterdam Airport Schiphol (EHAM)
Time Latitude Longitude Altitude Speed Heading
2026-05-04 06:59 39.25235 9.05949 15 ft 0 kts 321°
2026-05-04 07:23 39.25225 9.05959 15 ft 4 kts 317°
2026-05-04 07:23 39.25208 9.05984 18 ft 4 kts 298°
2026-05-04 07:23 39.25201 9.06013 16 ft 4 kts 253°
2026-05-04 07:24 39.25203 9.06023 16 ft 4 kts 232°
2026-05-04 07:24 39.25187 9.05996 18 ft 4 kts 232°
2026-05-04 07:24 39.25173 9.05974 15 ft 0 kts 232°
2026-05-04 07:27 39.25172 9.05973 15 ft 1 kts 232°
2026-05-04 07:28 39.25164 9.05960 37 ft 5 kts 232°
2026-05-04 07:28 39.25148 9.05900 15 ft 8 kts 279°
2026-05-04 07:28 39.25181 9.05847 15 ft 9 kts 318°
2026-05-04 07:28 39.25240 9.05780 15 ft 13 kts 319°
2026-05-04 07:29 39.25306 9.05705 15 ft 13 kts 318°
2026-05-04 07:29 39.25376 9.05614 15 ft 13 kts 304°
2026-05-04 07:29 39.25399 9.05514 15 ft 11 kts 281°
2026-05-04 07:29 39.25420 9.05420 15 ft 12 kts 296°
2026-05-04 07:30 39.25487 9.05307 15 ft 19 kts 316°
2026-05-04 07:30 39.25594 9.05184 15 ft 20 kts 319°
2026-05-04 07:30 39.25695 9.05068 15 ft 18 kts 317°
2026-05-04 07:30 39.25796 9.04952 15 ft 22 kts 318°
2026-05-04 07:31 39.25906 9.04823 15 ft 21 kts 318°
2026-05-04 07:31 39.26009 9.04704 15 ft 19 kts 317°
2026-05-04 07:33 39.26035 9.04402 15 ft 0 kts 139°
2026-05-04 07:33 39.26022 9.04416 15 ft 18 kts 138°
2026-05-04 07:33 39.25742 9.04741 16 ft 87 kts 138°
2026-05-04 07:33 39.25148 9.05428 15 ft 139 kts 138°
2026-05-04 07:34 39.24338 9.06366 213 ft 160 kts 140°
2026-05-04 07:34 39.23543 9.07260 990 ft 150 kts 139°
2026-05-04 07:34 39.22762 9.08160 1578 ft 151 kts 136°
2026-05-04 07:34 39.21962 9.09091 1957 ft 162 kts 136°
2026-05-04 07:35 39.21075 9.10126 2098 ft 182 kts 137°
2026-05-04 07:35 39.20090 9.11274 2220 ft 200 kts 137°
2026-05-04 07:35 39.18965 9.12460 2379 ft 219 kts 151°
2026-05-04 07:35 39.17459 9.12693 2833 ft 225 kts 194°
2026-05-04 07:36 39.16118 9.11660 3428 ft 228 kts 221°
2026-05-04 07:36 39.15038 9.10178 4142 ft 227 kts 229°
2026-05-04 07:38 39.18952 8.98144 7971 ft 275 kts 315°
2026-05-04 07:38 39.20382 8.96505 8643 ft 276 kts 315°
2026-05-04 07:38 39.21814 8.94889 9314 ft 279 kts 320°
2026-05-04 07:38 39.23511 8.93624 9958 ft 286 kts 335°
2026-05-04 07:39 39.25459 8.92969 10423 ft 299 kts 349°
2026-05-04 07:39 39.27616 8.92779 10539 ft 320 kts 353°
2026-05-04 07:39 39.29908 8.92618 10669 ft 340 kts 353°
2026-05-04 07:39 39.32341 8.92448 10793 ft 358 kts 354°
2026-05-04 07:40 39.34876 8.92271 11072 ft 370 kts 354°
2026-05-04 07:40 39.37460 8.92094 11592 ft 374 kts 354°
2026-05-04 07:40 39.40073 8.91933 12159 ft 378 kts 356°
2026-05-04 07:40 39.42713 8.92256 12716 ft 385 kts
2026-05-04 07:41 39.45284 8.93331 13263 ft 393 kts 22°
2026-05-04 07:41 39.47714 8.95010 13819 ft 397 kts 26°
2026-05-04 07:41 39.50140 8.96752 14314 ft 400 kts 26°
2026-05-04 07:41 39.52581 8.98501 14809 ft 403 kts 26°
2026-05-04 07:42 39.55038 9.00257 15296 ft 405 kts 26°
2026-05-04 07:42 39.57514 9.02027 15774 ft 407 kts 26°
2026-05-04 07:42 39.60001 9.03808 16261 ft 410 kts 26°
2026-05-04 07:42 39.62480 9.05547 16716 ft 411 kts 22°
2026-05-04 07:43 39.65144 9.06868 17179 ft 410 kts 13°
2026-05-04 07:43 39.67936 9.07588 17649 ft 409 kts
2026-05-04 07:43 39.70772 9.08007 18100 ft 411 kts
2026-05-04 07:43 39.73625 9.08425 18543 ft 414 kts
2026-05-04 07:44 39.76497 9.08848 18943 ft 416 kts
2026-05-04 07:44 39.79379 9.09279 19323 ft 419 kts
2026-05-04 07:44 39.82282 9.09718 19704 ft 421 kts
2026-05-04 07:44 39.85194 9.10158 20073 ft 423 kts
2026-05-04 07:45 39.88126 9.10597 20444 ft 425 kts
2026-05-04 07:45 39.91074 9.11039 20817 ft 427 kts
2026-05-04 07:45 39.94032 9.11482 21197 ft 430 kts
2026-05-04 07:45 39.97009 9.11924 21596 ft 432 kts
2026-05-04 07:46 40.00007 9.12370 21978 ft 434 kts
2026-05-04 07:46 40.03012 9.12820 22376 ft 436 kts
2026-05-04 07:46 40.06043 9.13272 22753 ft 439 kts
2026-05-04 07:46 40.09085 9.13731 23180 ft 441 kts
2026-05-04 07:47 40.12143 9.14200 23573 ft 443 kts
2026-05-04 07:47 40.15212 9.14674 23893 ft 446 kts
2026-05-04 07:47 40.18261 9.15142 24196 ft 448 kts
2026-05-04 07:49 40.39621 9.11864 26223 ft 448 kts 341°
2026-05-04 07:49 40.42650 9.10896 26495 ft 449 kts 341°
2026-05-04 07:49 40.45691 9.09920 26756 ft 451 kts 341°
2026-05-04 07:50 40.48744 9.08937 27027 ft 452 kts 341°
2026-05-04 07:50 40.51808 9.07946 27284 ft 454 kts 341°
2026-05-04 07:50 40.54878 9.06950 27548 ft 456 kts 341°
2026-05-04 07:50 40.57963 9.05950 27853 ft 456 kts 341°
2026-05-04 07:51 40.60997 9.04966 28248 ft 455 kts 340°
2026-05-04 07:51 40.64106 9.03957 28630 ft 453 kts 340°
2026-05-04 07:51 40.67121 9.02980 28974 ft 453 kts 340°
2026-05-04 07:51 40.70177 9.01988 29337 ft 452 kts 340°
2026-05-04 07:52 40.73226 9.00996 29691 ft 451 kts 340°
2026-05-04 07:52 40.76267 9.00005 30028 ft 450 kts 340°
2026-05-04 07:52 40.79302 8.99015 30335 ft 449 kts 340°
2026-05-04 07:52 40.82333 8.98025 30598 ft 448 kts 340°
2026-05-04 07:53 40.85359 8.97037 30876 ft 448 kts 340°
2026-05-04 07:54 41.06390 8.90140 32911 ft 442 kts 340°
2026-05-04 07:55 41.09333 8.89169 33186 ft 441 kts 340°
2026-05-04 07:55 41.12350 8.88177 33476 ft 441 kts 340°
2026-05-04 07:55 41.15321 8.87202 33748 ft 440 kts 340°
2026-05-04 07:55 41.18292 8.86226 34008 ft 440 kts 339°
2026-05-04 07:56 41.24182 8.84287 34093 ft 438 kts 340°
2026-05-04 07:56 41.30090 8.82328 34097 ft 438 kts 340°
2026-05-04 07:57 41.35974 8.80247 34103 ft 436 kts 337°
2026-05-04 07:57 41.41714 8.77701 34100 ft 434 kts 335°
2026-05-04 07:58 41.47410 8.74999 34104 ft 435 kts 335°
2026-05-04 07:58 41.53131 8.72364 34102 ft 435 kts 336°
2026-05-04 07:59 41.58881 8.69800 34093 ft 436 kts 336°
2026-05-04 07:59 41.64640 8.67236 34092 ft 436 kts 336°
2026-05-04 08:00 41.70396 8.64648 34090 ft 437 kts 336°
2026-05-04 08:02 41.93415 8.54243 34087 ft 438 kts 336°
2026-05-04 08:02 41.99222 8.51603 34086 ft 438 kts 336°
2026-05-04 08:03 42.04954 8.48995 34083 ft 438 kts 336°
2026-05-04 08:03 42.10733 8.46355 34085 ft 438 kts 336°
2026-05-04 08:04 42.16509 8.43717 34084 ft 439 kts 336°
2026-05-04 08:04 42.22300 8.41070 34083 ft 439 kts 336°
2026-05-04 08:05 42.28093 8.38416 34080 ft 440 kts 336°
2026-05-04 08:05 42.33810 8.35514 34080 ft 435 kts 328°
2026-05-04 08:06 42.39087 8.31580 34085 ft 433 kts 326°
2026-05-04 08:06 42.44365 8.27622 34081 ft 434 kts 326°
2026-05-04 08:08 42.65496 8.11728 34078 ft 435 kts 326°
2026-05-04 08:11 42.89284 7.93649 34082 ft 437 kts 326°
2026-05-04 08:11 42.97248 7.87569 34085 ft 437 kts 326°
2026-05-04 08:12 43.02560 7.83505 34083 ft 438 kts 326°
2026-05-04 08:12 43.07872 7.79429 34082 ft 438 kts 326°
2026-05-04 08:13 43.13184 7.75331 34081 ft 439 kts 326°
2026-05-04 08:13 43.18504 7.71214 34072 ft 439 kts 326°
2026-05-04 08:14 43.23832 7.67086 34081 ft 440 kts 326°
2026-05-04 08:16 43.44792 7.50807 34101 ft 442 kts 326°
2026-05-04 08:16 43.50141 7.46611 34114 ft 443 kts 326°
2026-05-04 08:17 43.55498 7.42409 34121 ft 443 kts 326°
2026-05-04 08:17 43.60870 7.38195 34130 ft 444 kts 326°
2026-05-04 08:19 43.80598 7.20275 34134 ft 444 kts 322°
2026-05-04 08:20 43.85755 7.15542 34133 ft 445 kts 322°
2026-05-04 08:20 43.90909 7.10801 34135 ft 445 kts 322°
2026-05-04 08:21 43.96067 7.06041 34143 ft 445 kts 322°
2026-05-04 08:21 44.01226 7.01273 34144 ft 446 kts 321°
2026-05-04 08:22 44.06391 6.96473 34149 ft 446 kts 321°
2026-05-04 08:24 44.27061 6.77154 34152 ft 448 kts 321°
2026-05-04 08:24 44.32227 6.72302 34146 ft 448 kts 321°
2026-05-04 08:25 44.37405 6.67423 34142 ft 448 kts 321°
2026-05-04 08:25 44.42577 6.62537 34129 ft 449 kts 321°
2026-05-04 08:27 44.63340 6.42897 34121 ft 453 kts 321°
2026-05-04 08:28 44.68552 6.37916 34119 ft 453 kts 321°
2026-05-04 08:28 44.73769 6.32925 34115 ft 454 kts 321°
2026-05-04 08:29 44.78998 6.27912 34108 ft 455 kts 321°
2026-05-04 08:31 44.99996 6.07725 34074 ft 458 kts 321°
2026-05-04 08:33 45.21082 5.87244 34046 ft 461 kts 321°
2026-05-04 08:35 45.42286 5.66455 34049 ft 464 kts 320°
2026-05-04 08:35 45.47604 5.61217 34049 ft 465 kts 320°
2026-05-04 08:37 45.66546 5.43396 34049 ft 469 kts 323°
2026-05-04 08:38 45.72121 5.38528 34047 ft 469 kts 323°
2026-05-04 08:38 45.77661 5.33581 34047 ft 469 kts 322°
2026-05-04 08:40 45.99757 5.13575 34058 ft 469 kts 322°
2026-05-04 08:41 46.05359 5.08713 34056 ft 474 kts 329°
2026-05-04 08:41 46.11374 5.04880 34057 ft 476 kts 332°
2026-05-04 08:42 46.17435 5.01028 34054 ft 476 kts 331°
2026-05-04 08:42 46.23494 4.97157 34055 ft 476 kts 331°
2026-05-04 08:43 46.29557 4.93293 34061 ft 476 kts 331°
2026-05-04 08:43 46.35619 4.89399 34057 ft 476 kts 331°
2026-05-04 08:44 46.41671 4.85500 34056 ft 476 kts 331°
2026-05-04 08:46 46.65872 4.69839 34056 ft 475 kts 331°
2026-05-04 08:46 46.71869 4.65928 34048 ft 475 kts 331°
2026-05-04 08:47 46.77901 4.61968 34048 ft 475 kts 331°
2026-05-04 08:47 46.83939 4.58021 34047 ft 475 kts 331°
2026-05-04 08:48 46.89989 4.54084 34041 ft 476 kts 332°
2026-05-04 08:48 46.96045 4.50151 34044 ft 476 kts 332°
2026-05-04 08:49 47.02101 4.46234 34036 ft 476 kts 331°
2026-05-04 08:50 47.23204 4.32373 34021 ft 476 kts 331°
2026-05-04 08:51 47.29250 4.28383 34020 ft 476 kts 331°
2026-05-04 08:51 47.35284 4.24382 34014 ft 476 kts 331°
2026-05-04 08:52 47.41322 4.20363 34014 ft 476 kts 331°
2026-05-04 08:52 47.47357 4.16346 34007 ft 476 kts 331°
2026-05-04 08:54 47.71499 4.00216 34001 ft 476 kts 330°
2026-05-04 08:55 47.77502 3.96181 33999 ft 477 kts 330°
2026-05-04 08:55 47.83548 3.92111 34006 ft 477 kts 330°
2026-05-04 09:01 48.38103 3.33791 33990 ft 460 kts 309°
2026-05-04 09:01 48.43293 3.27969 33991 ft 473 kts 327°
2026-05-04 09:02 48.49370 3.23968 33995 ft 477 kts 332°
2026-05-04 09:02 48.55490 3.20075 33993 ft 478 kts 332°
2026-05-04 09:03 48.60916 3.16596 33994 ft 478 kts 332°
2026-05-04 09:03 48.67043 3.12648 33993 ft 479 kts 332°
2026-05-04 09:04 48.73148 3.08713 33994 ft 479 kts 332°
2026-05-04 09:04 48.79283 3.04748 33999 ft 480 kts 332°
2026-05-04 09:05 48.85561 3.01189 34000 ft 486 kts 343°
2026-05-04 09:05 48.92235 2.99360 33999 ft 488 kts 347°
2026-05-04 09:06 48.98944 2.97649 33994 ft 489 kts 347°
2026-05-04 09:08 49.25771 2.90650 34004 ft 490 kts 347°
2026-05-04 09:08 49.32489 2.88878 34006 ft 490 kts 346°
2026-05-04 09:09 49.39212 2.87098 34003 ft 490 kts 346°
2026-05-04 09:09 49.45935 2.85326 34003 ft 490 kts 346°
2026-05-04 09:10 49.52657 2.83551 34003 ft 490 kts 346°
2026-05-04 09:10 49.59368 2.81767 34004 ft 489 kts 346°
2026-05-04 09:11 49.64945 2.80277 34004 ft 489 kts 346°
2026-05-04 09:11 49.71649 2.78484 34005 ft 489 kts 346°
2026-05-04 09:12 49.78417 2.77283 33994 ft 493 kts 359°
2026-05-04 09:14 50.03020 2.95391 33976 ft 498 kts 30°
2026-05-04 09:14 50.09101 3.00595 33979 ft 499 kts 28°
2026-05-04 09:15 50.15239 3.05661 33981 ft 499 kts 28°
2026-05-04 09:15 50.21348 3.10855 33988 ft 500 kts 29°
2026-05-04 09:17 50.48867 3.34305 34002 ft 500 kts 25°
2026-05-04 09:18 50.55161 3.38936 34010 ft 500 kts 22°
2026-05-04 09:18 50.61560 3.43218 34008 ft 499 kts 21°
2026-05-04 09:19 50.67963 3.47458 34011 ft 499 kts 21°
2026-05-04 09:19 50.74282 3.51783 33779 ft 499 kts 22°
2026-05-04 09:20 50.77458 3.54010 33500 ft 498 kts 22°
2026-05-04 09:20 50.80625 3.56242 33226 ft 498 kts 22°
2026-05-04 09:20 50.83796 3.58485 32950 ft 499 kts 22°
2026-05-04 09:20 50.86973 3.60723 32169 ft 503 kts 21°
2026-05-04 09:21 50.90293 3.62549 31214 ft 507 kts 12°
2026-05-04 09:21 50.93747 3.63666 30332 ft 507 kts
2026-05-04 09:21 50.97270 3.64084 29238 ft 509 kts 359°
2026-05-04 09:21 51.00818 3.64306 28289 ft 510 kts 359°
2026-05-04 09:22 51.04364 3.64533 27453 ft 508 kts 360°
2026-05-04 09:22 51.07871 3.64764 26886 ft 501 kts 360°
2026-05-04 09:22 51.11347 3.64996 26227 ft 497 kts
2026-05-04 09:22 51.14790 3.65221 25594 ft 494 kts
2026-05-04 09:23 51.18214 3.65442 24974 ft 489 kts
2026-05-04 09:23 51.21598 3.65657 24364 ft 485 kts
2026-05-04 09:23 51.24960 3.65837 23753 ft 480 kts 359°
2026-05-04 09:23 51.28282 3.65867 23041 ft 477 kts 357°
2026-05-04 09:25 51.50458 3.64929 18917 ft 437 kts 357°
2026-05-04 09:25 51.53463 3.64855 18236 ft 425 kts 357°
2026-05-04 09:26 51.56367 3.64782 17653 ft 411 kts 357°
2026-05-04 09:26 51.59198 3.64706 17115 ft 403 kts 357°
2026-05-04 09:26 51.61994 3.64622 16582 ft 399 kts 357°
2026-05-04 09:26 51.64760 3.64533 16055 ft 396 kts 358°
2026-05-04 09:27 51.67501 3.64857 15534 ft 395 kts
2026-05-04 09:27 51.70124 3.66119 15007 ft 393 kts 22°
2026-05-04 09:27 51.72479 3.68218 14496 ft 392 kts 35°
2026-05-04 09:27 51.74524 3.71106 13970 ft 390 kts 47°
2026-05-04 09:28 51.76140 3.74597 13424 ft 388 kts 58°
2026-05-04 09:28 51.77579 3.78269 12893 ft 384 kts 58°
2026-05-04 09:28 51.79002 3.81892 12384 ft 381 kts 57°
2026-05-04 09:28 51.80419 3.85488 11882 ft 378 kts 57°
2026-05-04 09:29 51.81826 3.89058 11377 ft 375 kts 57°
2026-05-04 09:29 51.83220 3.92599 10898 ft 372 kts 57°
2026-05-04 09:29 51.84584 3.96076 10750 ft 359 kts 57°
2026-05-04 09:29 51.85890 3.99415 10619 ft 345 kts 58°
2026-05-04 09:30 51.87150 4.02646 10505 ft 333 kts 58°
2026-05-04 09:30 51.88363 4.05764 10379 ft 322 kts 58°
2026-05-04 09:30 51.89534 4.08777 10256 ft 311 kts 58°
2026-05-04 09:30 51.90673 4.11696 10086 ft 302 kts 57°
2026-05-04 09:31 51.91999 4.14308 9969 ft 299 kts 42°
2026-05-04 09:31 51.93548 4.16550 9840 ft 299 kts 41°
2026-05-04 09:31 51.95072 4.18762 9726 ft 298 kts 41°
2026-05-04 09:31 51.96612 4.21009 9614 ft 297 kts 41°
2026-05-04 09:32 51.98145 4.23250 9501 ft 297 kts 41°
2026-05-04 09:32 51.99698 4.25520 9379 ft 296 kts 41°
2026-05-04 09:34 52.10303 4.41063 8633 ft 291 kts 41°
2026-05-04 09:34 52.11804 4.43271 8531 ft 291 kts 41°
2026-05-04 09:34 52.13298 4.45472 8418 ft 290 kts 41°
2026-05-04 09:34 52.14776 4.47649 8296 ft 289 kts 41°
2026-05-04 09:35 52.16267 4.49844 8208 ft 288 kts 41°
2026-05-04 09:35 52.17754 4.52031 8102 ft 288 kts 41°
2026-05-04 09:35 52.19235 4.54218 7993 ft 287 kts 41°
2026-05-04 09:35 52.20710 4.56405 7891 ft 286 kts 41°
2026-05-04 09:37 52.30911 4.71548 7133 ft 270 kts 41°
2026-05-04 09:37 52.32177 4.73669 7017 ft 259 kts 54°
2026-05-04 09:38 52.32990 4.76235 6824 ft 252 kts 73°
2026-05-04 09:38 52.33259 4.79007 6767 ft 247 kts 90°
2026-05-04 09:38 52.33276 4.81816 6650 ft 248 kts 89°
2026-05-04 09:38 52.33297 4.84630 6519 ft 247 kts 89°
2026-05-04 09:39 52.33319 4.87438 6372 ft 246 kts 89°
2026-05-04 09:39 52.33344 4.90239 6204 ft 246 kts 89°
2026-05-04 09:39 52.33365 4.93029 6076 ft 245 kts 89°
2026-05-04 09:39 52.33384 4.95812 5936 ft 245 kts 89°
2026-05-04 09:40 52.33404 4.98593 5791 ft 244 kts 89°
2026-05-04 09:40 52.33422 5.01370 5648 ft 244 kts 89°
2026-05-04 09:40 52.33441 5.04135 5505 ft 243 kts 89°
2026-05-04 09:40 52.33659 5.06850 5364 ft 242 kts 70°
2026-05-04 09:41 52.34478 5.09212 5213 ft 239 kts 47°
2026-05-04 09:42 52.45025 5.15284 4236 ft 233 kts 336°
2026-05-04 09:43 52.46332 5.13851 4054 ft 222 kts 316°
2026-05-04 09:43 52.47268 5.11932 3934 ft 217 kts 297°
2026-05-04 09:43 52.47742 5.09606 3802 ft 216 kts 276°
2026-05-04 09:43 52.47665 5.07173 3669 ft 215 kts 255°
2026-05-04 09:44 52.47225 5.04827 3556 ft 215 kts 252°
2026-05-04 09:44 52.46612 5.02608 3428 ft 211 kts 235°
2026-05-04 09:44 52.45674 5.00887 3308 ft 194 kts 223°
2026-05-04 09:46 52.39489 4.91916 2129 ft 162 kts 220°
2026-05-04 09:46 52.38644 4.90700 1936 ft 162 kts 220°
2026-05-04 09:46 52.37823 4.89519 1714 ft 153 kts 221°
2026-05-04 09:47 52.37034 4.88385 1486 ft 149 kts 220°
2026-05-04 09:47 52.36258 4.87270 1291 ft 148 kts 220°
2026-05-04 09:49 52.30970 4.79666 -3 ft 130 kts 218°
2026-05-04 09:49 52.30482 4.78985 -5 ft 47 kts 221°
2026-05-04 09:49 52.30285 4.78704 -5 ft 29 kts 220°
2026-05-04 09:51 52.30359 4.78031 -1 ft 0 kts 311°
2026-05-04 09:51 52.30369 4.78013 0 ft 6 kts 311°
2026-05-04 09:51 52.30416 4.77924 0 ft 12 kts 311°
2026-05-04 09:52 52.30472 4.77818 0 ft 12 kts 310°
2026-05-04 09:52 52.30539 4.77716 -1 ft 14 kts 329°
2026-05-04 09:52 52.30618 4.77640 -1 ft 13 kts 317°
2026-05-04 09:52 52.30642 4.77513 -1 ft 11 kts 274°
2026-05-04 09:53 52.30629 4.77391 -1 ft 11 kts 242°
2026-05-04 09:53 52.30572 4.77242 -1 ft 16 kts 238°
2026-05-04 09:53 52.30516 4.77097 -1 ft 14 kts 238°
2026-05-04 09:53 52.30496 4.76986 -1 ft 9 kts 305°
2026-05-04 09:54 52.30546 4.76928 -1 ft 8 kts 328°
2026-05-04 09:54 52.30588 4.76876 -1 ft 7 kts 310°
2026-05-04 09:54 52.30625 4.76790 -1 ft 9 kts 314°
2026-05-04 09:54 52.30655 4.76728 -1 ft 6 kts 267°
2026-05-04 09:55 52.30641 4.76674 -1 ft 5 kts 239°
2026-05-04 09:55 52.30628 4.76641 -1 ft 2 kts 236°
2026-05-04 09:55 52.30623 4.76628 -1 ft 0 kts 236°